Regional Weather Roundup
Issued by NWS

Home | Current Version | Previous Version | Text Only | Print | Product List | Glossary On
Versions: 1 2 3 4 5 6 7 8 9 10 11 12 13 14 15 16 17 18 19 20 21 22 23 24 25 26 27 28 29 30 31 32 33 34 35 36 37 38 39 40 41 42 43 44 45 46 47 48 49 50
000
ASUS44 KJAN 251203
RWRMS

MISSISSIPPI HOURLY WEATHER ROUNDUP
NATIONAL WEATHER SERVICE JACKSON MS
700 AM CDT MON JUL 25 2016

NOTE: "FAIR: INDICATES FEW OR NO CLOUDS BELOW 12,000 FEET WITH NO
SIGNIFICANT WEATHER AND/OR OBSTRUCTIONS TO VISIBILITY.

MSZ001>002-007>008-010>013-018>021-025>028-034>036-251300-
NORTHWEST MISSISSIPPI

CITY           SKY/WX    TMP DP  RH WIND       PRES   REMARKS
CLEVELAND      FAIR      77  77 100 CALM      30.00S
GREENWOOD      CLEAR     76  72  87 E3        30.02R
6HR MIN TEMP:  74; 6HR MAX TEMP:  78;

GREENVILLE     CLEAR     75  72  90 SE6       30.00R
6HR MIN TEMP:  74; 6HR MAX TEMP:  76;

OXFORD         FAIR      73  72  94 CALM      30.05R
WINONA         FAIR      72  72 100 CALM      30.03R
$$

MSZ003>006-009-014>017-022>024-029>033-037>039-251300-
NORTHEAST MISSISSIPPI

CITY           SKY/WX    TMP DP  RH WIND       PRES   REMARKS
ABERDEEN       FAIR      73  55  53 SE3       30.05S HAZE
COLUMBUS AFB   SUNNY     75  75 100 CALM      30.04R
6HR MIN TEMP:  73; 6HR MAX TEMP:  77;

GOLDN TRIANGLE SUNNY     75  70  83 CALM      30.04R
TUPELO         SUNNY     78  74  87 CALM      30.04R
6HR MIN TEMP:  75; 6HR MAX TEMP:  80;

$$

MSZ040-058-251300-
CENTRAL MISSISSIPPI

CITY           SKY/WX    TMP DP  RH WIND       PRES   REMARKS
JACKSON INTL   CLEAR     75  72  90 CALM      30.02R
6HR MIN TEMP:  73; 6HR MAX TEMP:  76;

JACKSON HAWKNS CLEAR     74  72  93 NW3       30.03R
6HR MIN TEMP:  73; 6HR MAX TEMP:  77;

MADISON        FAIR      70  70 100 CALM      30.02R
MERIDIAN KEY   CLEAR     76  72  87 CALM      30.03R
6HR MIN TEMP:  73; 6HR MAX TEMP:  77;

MERIDIAN NAS   SUNNY     74  70  87 CALM      30.03S
6HR MIN TEMP:  72; 6HR MAX TEMP:  77;

VICKSBURG VKS  SUNNY     73  73 100 CALM      30.01R
$$

MSZ059>079-251300-
SOUTH MISSISSIPPI

CITY           SKY/WX    TMP DP  RH WIND       PRES   REMARKS
BROOKHAVEN     FAIR     N/A N/A N/A CALM      30.03R FOG
COLUMBIA       FAIR      75  73  94 CALM      30.04R
HATTIESBURG    PTCLDY    76  74  93 CALM      30.02R
6HR MIN TEMP:  74; 6HR MAX TEMP:  76;

MCCOMB         CLEAR     75  72  90 CALM      30.01R
6HR MIN TEMP:  73; 6HR MAX TEMP:  75;

NATCHEZ        CLEAR     73  70  88 CALM      30.00S
6HR MIN TEMP:  72; 6HR MAX TEMP:  75;

PINE BELT      CLEAR     73  72  94 NE3       30.02R
6HR MIN TEMP:  73; 6HR MAX TEMP:  73;

$$

MSZ080>082-251300-
COASTAL MISSISSIPPI

CITY           SKY/WX    TMP DP  RH WIND       PRES   REMARKS
BAY ST LOUIS   PTCLDY    77  72  83 CALM      29.97
BILOXI         CLOUDY    78  78 100 NE6       29.97R
6HR MIN TEMP:  77; 6HR MAX TEMP:  81; 6HR PCP: TRACE;

PASCAGOULA     MOCLDY    77  77 100 N5        29.98R
6HR MIN TEMP:  75; 6HR MAX TEMP:  78; 6HR PCP:  0.04;

GULFPORT       MOCLDY    77  76  96 CALM      29.97R
6HR MIN TEMP:  77; 6HR MAX TEMP:  80; 6HR PCP:  0.07;

$$

LAZ007>009-015>016-023>026-251300-
NORTHEAST LOUISIANA

CITY           SKY/WX    TMP DP  RH WIND       PRES   REMARKS
BASTROP        FAIR      73  72  98 CALM      30.01R FOG
TALLULAH/VBURG MOCLDY    77  74  90 CALM      30.01R
6HR MIN TEMP:  74; 6HR MAX TEMP:  78;

VIDALIA        FAIR      75  73  93 CALM      30.02S
$$



USA.gov is the U.S. government's official web portal to all federal, state and local government web resources and services.